Time,TemperatureF,DewpointF,PressureIn,WindDirection,WindDirectionDegrees,WindSpeedMPH,WindSpeedGustMPH,Humidity,HourlyPrecipIn,Conditions,Clouds,dailyrainin,SoftwareType,DateUTC
2013-02-15 00:01:00,39.0,38.0,29.91,North,-999,3.0,8.0,95,-99.99,,,-99.99,,2013-02-15 09:01:00,
2013-02-15 00:11:00,39.0,38.0,29.91,North,-999,3.0,8.0,95,-99.99,,,-99.99,,2013-02-15 09:11:00,
2013-02-15 00:21:00,38.0,37.0,29.90,North,-999,9.0,15.0,96,-99.99,,,-99.99,,2013-02-15 09:21:00,
2013-02-15 00:31:00,38.0,37.0,29.90,North,-999,9.0,15.0,96,-99.99,,,-99.99,,2013-02-15 09:31:00,
2013-02-15 00:41:00,37.0,36.0,29.89,North,-999,3.0,13.0,95,-99.99,,,-99.99,,2013-02-15 09:41:00,
2013-02-15 00:51:00,37.0,36.0,29.89,North,-999,3.0,13.0,95,-99.99,,,-99.99,,2013-02-15 09:51:00,
2013-02-15 01:01:00,35.0,34.0,29.87,North,-999,5.0,11.0,95,-99.99,,,-99.99,,2013-02-15 10:01:00,
2013-02-15 01:11:00,35.0,34.0,29.87,North,-999,5.0,11.0,95,-99.99,,,-99.99,,2013-02-15 10:11:00,
2013-02-15 01:21:00,34.0,33.0,29.87,North,-999,3.0,8.0,96,-99.99,,,-99.99,,2013-02-15 10:21:00,
2013-02-15 01:31:00,34.0,33.0,29.87,North,-999,3.0,8.0,96,-99.99,,,-99.99,,2013-02-15 10:31:00,
2013-02-15 01:41:00,34.0,33.0,29.86,North,-999,3.0,9.0,96,-99.99,,,-99.99,,2013-02-15 10:41:00,
2013-02-15 01:51:00,34.0,33.0,29.86,North,-999,3.0,9.0,96,-99.99,,,-99.99,,2013-02-15 10:51:00,
2013-02-15 02:01:00,34.0,33.0,29.85,North,-999,5.0,10.0,96,-99.99,,,-99.99,,2013-02-15 11:01:00,
2013-02-15 02:11:00,34.0,33.0,29.85,North,-999,5.0,10.0,96,-99.99,,,-99.99,,2013-02-15 11:11:00,
2013-02-15 02:22:00,34.0,33.0,29.84,North,-999,3.0,7.0,96,-99.99,,,-99.99,,2013-02-15 11:22:00,
2013-02-15 02:31:00,34.0,33.0,29.84,North,-999,3.0,7.0,96,-99.99,,,-99.99,,2013-02-15 11:31:00,
2013-02-15 02:42:00,34.0,33.0,29.83,North,-999,1.0,-999.0,96,-99.99,,,-99.99,,2013-02-15 11:42:00,
2013-02-15 02:52:00,34.0,33.0,29.83,North,-999,1.0,-999.0,96,-99.99,,,-99.99,,2013-02-15 11:52:00,
2013-02-15 03:01:00,34.0,33.0,29.83,North,-999,1.0,-999.0,96,-99.99,,,-99.99,,2013-02-15 12:01:00,
2013-02-15 03:11:00,34.0,33.0,29.83,North,-999,1.0,-999.0,96,-99.99,,,-99.99,,2013-02-15 12:11:00,
2013-02-15 03:21:00,34.0,33.0,29.81,North,-999,1.0,6.0,96,-99.99,,,-99.99,,2013-02-15 12:21:00,
2013-02-15 03:31:00,34.0,33.0,29.81,North,-999,1.0,6.0,96,-99.99,,,-99.99,,2013-02-15 12:31:00,
2013-02-15 03:42:00,34.0,33.0,29.80,North,-999,1.0,3.0,96,-99.99,,,-99.99,,2013-02-15 12:42:00,
2013-02-15 03:52:00,34.0,33.0,29.80,North,-999,1.0,3.0,96,-99.99,,,-99.99,,2013-02-15 12:52:00,
2013-02-15 04:02:00,34.0,33.0,29.79,North,-999,0.0,8.0,96,-99.99,,,-99.99,,2013-02-15 13:02:00,
2013-02-15 04:11:00,34.0,33.0,29.79,North,-999,0.0,8.0,96,-99.99,,,-99.99,,2013-02-15 13:11:00,
2013-02-15 04:21:00,34.0,33.0,29.77,North,-999,1.0,3.0,96,-99.99,,,-99.99,,2013-02-15 13:21:00,
2013-02-15 04:31:00,34.0,33.0,29.77,North,-999,1.0,3.0,96,-99.99,,,-99.99,,2013-02-15 13:31:00,
2013-02-15 04:41:00,34.0,33.0,29.75,North,-999,3.0,-999.0,96,-99.99,,,-99.99,,2013-02-15 13:41:00,
2013-02-15 04:51:00,34.0,33.0,29.75,North,-999,3.0,-999.0,96,-99.99,,,-99.99,,2013-02-15 13:51:00,
2013-02-15 05:01:00,34.0,34.0,29.75,North,-999,2.0,7.0,100,-99.99,,,-99.99,,2013-02-15 14:01:00,
2013-02-15 05:11:00,34.0,34.0,29.75,North,-999,2.0,7.0,100,-99.99,,,-99.99,,2013-02-15 14:11:00,
2013-02-15 05:21:00,35.0,34.0,29.73,North,-999,3.0,6.0,95,-99.99,,,-99.99,,2013-02-15 14:21:00,
2013-02-15 05:31:00,35.0,34.0,29.73,North,-999,3.0,6.0,95,-99.99,,,-99.99,,2013-02-15 14:31:00,
2013-02-15 05:41:00,35.0,34.0,29.72,North,-999,1.0,5.0,95,-99.99,,,-99.99,,2013-02-15 14:41:00,
2013-02-15 05:52:00,35.0,34.0,29.72,North,-999,1.0,5.0,95,-99.99,,,-99.99,,2013-02-15 14:52:00,
2013-02-15 06:01:00,35.0,34.0,29.72,North,-999,2.0,3.0,95,-99.99,,,-99.99,,2013-02-15 15:01:00,
2013-02-15 06:11:00,35.0,34.0,29.72,North,-999,2.0,3.0,95,-99.99,,,-99.99,,2013-02-15 15:11:00,
2013-02-15 06:21:00,35.0,34.0,29.71,North,-999,2.0,5.0,95,-99.99,,,-99.99,,2013-02-15 15:21:00,
2013-02-15 06:32:00,35.0,34.0,29.71,North,-999,2.0,5.0,95,-99.99,,,-99.99,,2013-02-15 15:32:00,
2013-02-15 06:41:00,38.0,38.0,29.70,North,-999,3.0,10.0,100,-99.99,,,-99.99,,2013-02-15 15:41:00,
2013-02-15 06:51:00,38.0,38.0,29.70,North,-999,3.0,10.0,100,-99.99,,,-99.99,,2013-02-15 15:51:00,
2013-02-15 07:01:00,39.0,38.0,29.70,North,-999,6.0,11.0,95,-99.99,,,-99.99,,2013-02-15 16:01:00,
2013-02-15 07:11:00,39.0,38.0,29.70,North,-999,6.0,11.0,95,-99.99,,,-99.99,,2013-02-15 16:11:00,
2013-02-15 07:21:00,39.0,38.0,29.69,North,-999,6.0,11.0,95,-99.99,,,-99.99,,2013-02-15 16:21:00,
2013-02-15 07:31:00,39.0,38.0,29.69,North,-999,6.0,11.0,95,-99.99,,,-99.99,,2013-02-15 16:31:00,
2013-02-15 07:42:00,39.0,38.0,29.69,North,-999,6.0,13.0,95,-99.99,,,-99.99,,2013-02-15 16:42:00,
2013-02-15 07:51:00,39.0,38.0,29.69,North,-999,6.0,13.0,95,-99.99,,,-99.99,,2013-02-15 16:51:00,
2013-02-15 08:01:00,39.0,38.0,29.69,North,-999,6.0,13.0,95,-99.99,,,-99.99,,2013-02-15 17:01:00,
2013-02-15 08:11:00,39.0,38.0,29.69,North,-999,6.0,13.0,95,-99.99,,,-99.99,,2013-02-15 17:11:00,
2013-02-15 08:21:00,40.0,39.0,29.70,North,-999,5.0,11.0,96,-99.99,,,-99.99,,2013-02-15 17:21:00,
2013-02-15 08:31:00,40.0,39.0,29.70,North,-999,5.0,11.0,96,-99.99,,,-99.99,,2013-02-15 17:31:00,
2013-02-15 08:41:00,40.0,39.0,29.70,North,-999,5.0,13.0,96,-99.99,,,-99.99,,2013-02-15 17:41:00,
2013-02-15 08:52:00,40.0,39.0,29.70,North,-999,5.0,13.0,96,-99.99,,,-99.99,,2013-02-15 17:52:00,
2013-02-15 09:01:00,40.0,40.0,29.71,North,-999,3.0,11.0,100,-99.99,,,-99.99,,2013-02-15 18:01:00,
2013-02-15 09:11:00,40.0,40.0,29.71,North,-999,3.0,11.0,100,-99.99,,,-99.99,,2013-02-15 18:11:00,
2013-02-15 09:21:00,41.0,40.0,29.71,North,-999,5.0,11.0,95,-99.99,,,-99.99,,2013-02-15 18:21:00,
2013-02-15 09:31:00,41.0,40.0,29.71,North,-999,5.0,11.0,95,-99.99,,,-99.99,,2013-02-15 18:31:00,
2013-02-15 09:41:00,41.0,40.0,29.71,North,-999,11.0,16.0,95,-99.99,,,-99.99,,2013-02-15 18:41:00,
2013-02-15 09:52:00,41.0,40.0,29.71,North,-999,11.0,16.0,95,-99.99,,,-99.99,,2013-02-15 18:52:00,
2013-02-15 10:01:00,41.0,40.0,29.71,North,-999,11.0,15.0,95,-99.99,,,-99.99,,2013-02-15 19:01:00,
2013-02-15 10:11:00,41.0,40.0,29.71,North,-999,11.0,15.0,95,-99.99,,,-99.99,,2013-02-15 19:11:00,
2013-02-15 10:21:00,42.0,41.0,29.72,North,-999,11.0,20.0,95,-99.99,,,-99.99,,2013-02-15 19:21:00,
2013-02-15 10:31:00,42.0,41.0,29.72,North,-999,11.0,20.0,95,-99.99,,,-99.99,,2013-02-15 19:31:00,
2013-02-15 10:41:00,43.0,42.0,29.72,North,-999,11.0,20.0,96,-99.99,,,-99.99,,2013-02-15 19:41:00,
2013-02-15 10:51:00,43.0,42.0,29.72,North,-999,11.0,20.0,96,-99.99,,,-99.99,,2013-02-15 19:51:00,
2013-02-15 11:01:00,43.0,42.0,29.72,North,-999,14.0,22.0,96,-99.99,,,-99.99,,2013-02-15 20:01:00,
2013-02-15 11:11:00,43.0,42.0,29.72,North,-999,14.0,22.0,96,-99.99,,,-99.99,,2013-02-15 20:11:00,
2013-02-15 11:21:00,43.0,42.0,29.71,North,-999,15.0,24.0,96,-99.99,,,-99.99,,2013-02-15 20:21:00,
2013-02-15 11:32:00,43.0,42.0,29.71,North,-999,15.0,24.0,96,-99.99,,,-99.99,,2013-02-15 20:32:00,
2013-02-15 11:42:00,43.0,41.0,29.72,North,-999,13.0,24.0,92,-99.99,,,-99.99,,2013-02-15 20:42:00,
2013-02-15 11:52:00,43.0,41.0,29.72,North,-999,13.0,24.0,92,-99.99,,,-99.99,,2013-02-15 20:52:00,
2013-02-15 12:01:00,42.0,41.0,29.72,North,-999,14.0,24.0,95,-99.99,,,-99.99,,2013-02-15 21:01:00,
2013-02-15 12:11:00,42.0,41.0,29.72,North,-999,14.0,24.0,95,-99.99,,,-99.99,,2013-02-15 21:11:00,
2013-02-15 12:21:00,42.0,41.0,29.72,North,-999,13.0,24.0,95,-99.99,,,-99.99,,2013-02-15 21:21:00,
2013-02-15 12:31:00,42.0,41.0,29.72,North,-999,13.0,24.0,95,-99.99,,,-99.99,,2013-02-15 21:31:00,
2013-02-15 12:42:00,42.0,41.0,29.71,North,-999,15.0,25.0,95,-99.99,,,-99.99,,2013-02-15 21:42:00,
2013-02-15 12:51:00,42.0,41.0,29.71,North,-999,15.0,25.0,95,-99.99,,,-99.99,,2013-02-15 21:51:00,
2013-02-15 13:01:00,42.0,41.0,29.71,North,-999,11.0,20.0,95,-99.99,,,-99.99,,2013-02-15 22:01:00,
2013-02-15 13:11:00,42.0,41.0,29.71,North,-999,11.0,20.0,95,-99.99,,,-99.99,,2013-02-15 22:11:00,
2013-02-15 13:21:00,42.0,41.0,29.71,North,-999,14.0,22.0,95,-99.99,,,-99.99,,2013-02-15 22:21:00,
2013-02-15 13:31:00,42.0,41.0,29.71,North,-999,14.0,22.0,95,-99.99,,,-99.99,,2013-02-15 22:31:00,
2013-02-15 13:41:00,42.0,40.0,29.71,North,-999,11.0,24.0,91,-99.99,,,-99.99,,2013-02-15 22:41:00,
2013-02-15 13:51:00,42.0,40.0,29.71,North,-999,11.0,24.0,91,-99.99,,,-99.99,,2013-02-15 22:51:00,
2013-02-15 14:01:00,42.0,41.0,29.71,North,-999,11.0,22.0,95,-99.99,,,-99.99,,2013-02-15 23:01:00,
2013-02-15 14:11:00,42.0,41.0,29.71,North,-999,11.0,22.0,95,-99.99,,,-99.99,,2013-02-15 23:11:00,
2013-02-15 14:21:00,42.0,41.0,29.71,North,-999,11.0,22.0,95,-99.99,,,-99.99,,2013-02-15 23:21:00,
2013-02-15 14:31:00,42.0,41.0,29.71,North,-999,11.0,22.0,95,-99.99,,,-99.99,,2013-02-15 23:31:00,
2013-02-15 14:41:00,42.0,40.0,29.70,North,-999,11.0,22.0,91,-99.99,,,-99.99,,2013-02-15 23:41:00,
2013-02-15 14:52:00,42.0,40.0,29.70,North,-999,11.0,25.0,91,-99.99,,,-99.99,,2013-02-15 23:52:00,
2013-02-15 15:01:00,42.0,41.0,29.70,North,-999,13.0,23.0,95,-99.99,,,-99.99,,2013-02-16 00:01:00,
2013-02-15 15:11:00,42.0,41.0,29.70,North,-999,13.0,23.0,95,-99.99,,,-99.99,,2013-02-16 00:11:00,
2013-02-15 15:21:00,42.0,41.0,29.70,North,-999,11.0,22.0,95,-99.99,,,-99.99,,2013-02-16 00:21:00,
2013-02-15 15:31:00,42.0,41.0,29.70,North,-999,11.0,22.0,95,-99.99,,,-99.99,,2013-02-16 00:31:00,
2013-02-15 15:41:00,42.0,41.0,29.71,North,-999,9.0,20.0,95,-99.99,,,-99.99,,2013-02-16 00:41:00,
2013-02-15 15:51:00,42.0,41.0,29.71,North,-999,9.0,20.0,95,-99.99,,,-99.99,,2013-02-16 00:51:00,
2013-02-15 16:01:00,42.0,41.0,29.72,North,-999,7.0,13.0,95,-99.99,,,-99.99,,2013-02-16 01:01:00,
2013-02-15 16:11:00,42.0,41.0,29.72,North,-999,7.0,13.0,95,-99.99,,,-99.99,,2013-02-16 01:11:00,
2013-02-15 16:21:00,42.0,41.0,29.73,North,-999,5.0,11.0,95,-99.99,,,-99.99,,2013-02-16 01:21:00,
2013-02-15 16:31:00,42.0,41.0,29.73,North,-999,5.0,11.0,95,-99.99,,,-99.99,,2013-02-16 01:31:00,
2013-02-15 16:41:00,42.0,41.0,29.73,North,-999,3.0,9.0,95,-99.99,,,-99.99,,2013-02-16 01:41:00,
2013-02-15 16:51:00,42.0,41.0,29.73,North,-999,3.0,9.0,95,-99.99,,,-99.99,,2013-02-16 01:51:00,
2013-02-15 17:01:00,42.0,41.0,29.74,North,-999,3.0,7.0,95,-99.99,,,-99.99,,2013-02-16 02:01:00,
2013-02-15 17:11:00,42.0,41.0,29.74,North,-999,3.0,7.0,95,-99.99,,,-99.99,,2013-02-16 02:11:00,
2013-02-15 17:21:00,42.0,41.0,29.75,North,-999,3.0,7.0,95,-99.99,,,-99.99,,2013-02-16 02:21:00,
2013-02-15 17:31:00,42.0,41.0,29.75,North,-999,3.0,7.0,95,-99.99,,,-99.99,,2013-02-16 02:31:00,
2013-02-15 17:42:00,42.0,41.0,29.76,North,-999,3.0,8.0,95,-99.99,,,-99.99,,2013-02-16 02:42:00,
2013-02-15 17:51:00,42.0,41.0,29.76,North,-999,3.0,8.0,95,-99.99,,,-99.99,,2013-02-16 02:51:00,
2013-02-15 18:01:00,41.0,40.0,29.77,North,-999,3.0,8.0,95,-99.99,,,-99.99,,2013-02-16 03:01:00,
2013-02-15 18:11:00,41.0,40.0,29.77,North,-999,3.0,8.0,95,-99.99,,,-99.99,,2013-02-16 03:11:00,
2013-02-15 18:21:00,42.0,41.0,29.78,North,-999,3.0,8.0,95,-99.99,,,-99.99,,2013-02-16 03:21:00,
2013-02-15 18:31:00,42.0,41.0,29.78,North,-999,3.0,8.0,95,-99.99,,,-99.99,,2013-02-16 03:31:00,
2013-02-15 18:41:00,42.0,41.0,29.79,North,-999,1.0,-999.0,95,-99.99,,,-99.99,,2013-02-16 03:41:00,
2013-02-15 18:52:00,42.0,41.0,29.79,North,-999,1.0,-999.0,95,-99.99,,,-99.99,,2013-02-16 03:52:00,
2013-02-15 19:01:00,42.0,40.0,29.80,North,-999,3.0,8.0,91,-99.99,,,-99.99,,2013-02-16 04:01:00,
2013-02-15 19:11:00,42.0,40.0,29.80,North,-999,3.0,8.0,91,-99.99,,,-99.99,,2013-02-16 04:11:00,
2013-02-15 19:21:00,41.0,40.0,29.81,North,-999,3.0,5.0,95,-99.99,,,-99.99,,2013-02-16 04:21:00,
2013-02-15 19:31:00,41.0,40.0,29.81,North,-999,3.0,5.0,95,-99.99,,,-99.99,,2013-02-16 04:31:00,
2013-02-15 19:41:00,41.0,39.0,29.81,North,-999,3.0,5.0,92,-99.99,,,-99.99,,2013-02-16 04:41:00,
2013-02-15 19:51:00,41.0,39.0,29.81,North,-999,3.0,5.0,92,-99.99,,,-99.99,,2013-02-16 04:51:00,
2013-02-15 20:01:00,40.0,39.0,29.82,North,-999,2.0,5.0,96,-99.99,,,-99.99,,2013-02-16 05:01:00,
2013-02-15 20:11:00,40.0,39.0,29.82,North,-999,2.0,5.0,96,-99.99,,,-99.99,,2013-02-16 05:11:00,
2013-02-15 20:21:00,40.0,39.0,29.83,North,-999,2.0,3.0,96,-99.99,,,-99.99,,2013-02-16 05:21:00,
2013-02-15 20:31:00,40.0,39.0,29.83,North,-999,2.0,3.0,96,-99.99,,,-99.99,,2013-02-16 05:31:00,
2013-02-15 20:42:00,39.0,38.0,29.83,North,-999,3.0,5.0,95,-99.99,,,-99.99,,2013-02-16 05:42:00,
2013-02-15 20:52:00,39.0,38.0,29.83,North,-999,3.0,5.0,95,-99.99,,,-99.99,,2013-02-16 05:52:00,
2013-02-15 21:01:00,39.0,38.0,29.84,North,-999,2.0,3.0,95,-99.99,,,-99.99,,2013-02-16 06:01:00,
2013-02-15 21:11:00,39.0,38.0,29.84,North,-999,2.0,3.0,95,-99.99,,,-99.99,,2013-02-16 06:11:00,
2013-02-15 21:21:00,39.0,38.0,29.84,North,-999,0.0,3.0,95,-99.99,,,-99.99,,2013-02-16 06:21:00,
2013-02-15 21:32:00,39.0,38.0,29.84,North,-999,0.0,3.0,95,-99.99,,,-99.99,,2013-02-16 06:32:00,
2013-02-15 21:41:00,39.0,39.0,29.85,North,-999,1.0,3.0,100,-99.99,,,-99.99,,2013-02-16 06:41:00,
2013-02-15 21:51:00,39.0,39.0,29.85,North,-999,1.0,3.0,100,-99.99,,,-99.99,,2013-02-16 06:51:00,
2013-02-15 22:01:00,38.0,38.0,29.85,North,-999,1.0,3.0,100,-99.99,,,-99.99,,2013-02-16 07:01:00,
2013-02-15 22:11:00,38.0,38.0,29.85,North,-999,1.0,3.0,100,-99.99,,,-99.99,,2013-02-16 07:11:00,
2013-02-15 22:21:00,38.0,37.0,29.86,North,-999,3.0,6.0,96,-99.99,,,-99.99,,2013-02-16 07:21:00,
2013-02-15 22:31:00,38.0,37.0,29.86,North,-999,3.0,6.0,96,-99.99,,,-99.99,,2013-02-16 07:31:00,
2013-02-15 22:41:00,39.0,38.0,29.86,North,-999,2.0,3.0,95,-99.99,,,-99.99,,2013-02-16 07:41:00,
2013-02-15 22:52:00,39.0,38.0,29.86,North,-999,2.0,3.0,95,-99.99,,,-99.99,,2013-02-16 07:52:00,
2013-02-15 23:01:00,38.0,37.0,29.87,North,-999,0.0,3.0,96,-99.99,,,-99.99,,2013-02-16 08:01:00,
2013-02-15 23:11:00,38.0,37.0,29.87,North,-999,0.0,3.0,96,-99.99,,,-99.99,,2013-02-16 08:11:00,
2013-02-15 23:21:00,38.0,37.0,29.87,North,-999,3.0,-999.0,96,-99.99,,,-99.99,,2013-02-16 08:21:00,
2013-02-15 23:31:00,38.0,37.0,29.87,North,-999,3.0,-999.0,96,-99.99,,,-99.99,,2013-02-16 08:31:00,
2013-02-15 23:41:00,38.0,37.0,29.87,North,-999,2.0,3.0,96,-99.99,,,-99.99,,2013-02-16 08:41:00,
2013-02-15 23:52:00,38.0,37.0,29.87,North,-999,2.0,3.0,96,-99.99,,,-99.99,,2013-02-16 08:52:00,